Location: *
(28.3744°N, 81.5492°W)
Time: 00:08:18
(UTC+00:00)

Daily predictions for brighter satellites

Satellite Brightness Start Highest point End
(mag) Time Altitude Azimuth Time Altitude Azimuth Time Altitude Azimuth
YAOGAN 11 4.3 00:44:32 10° N 00:49:01 84° WNW 00:53:29 10° SSW
Cosmos 1842 3.3 00:47:42 10° SSE 00:50:58 43° E 00:54:15 10° NNE
CARTOSAT-1 3.5 00:48:21 10° SSE 00:52:32 79° ENE 00:56:46 10° N
SPOT 5 4.4 00:52:12 10° ESE 00:55:03 17° ENE 00:57:59 10° NNE
Cosmos 2322 Rocket 2.8 00:50:45 10° NNW 00:56:15 60° WSW 01:01:44 10° S
Cosmos 2360 Rocket 2.5 00:51:34 10° NNW 00:57:10 72° WSW 01:02:46 10° S
Cosmos 1975 3.0 00:54:25 10° N 00:58:01 45° E 01:01:36 10° SSE
Cosmos 2227 Rocket 3.8 00:55:59 10° SE 00:58:51 14° E 01:01:43 10° ENE
USA 305 2.5 00:55:10 10° SSW 00:58:56 65° SE 01:02:51 10° NE
CZ-2C R/B 2.8 00:55:58 10° SSE 00:59:12 45° ENE 01:02:26 10° N
Hubble Space Telescope 2.1 00:56:07 10° W 00:59:19 25° SSW 01:02:32 10° SE
USA 186 3.2 00:57:33 10° ESE 00:59:25 17° ENE 01:01:16 10° NNE
Tiangong 0.6 00:58:09 10° WSW 00:59:30 12° SW 01:00:50 10° SSW
Cosmos 1151 Rocket 3.7 00:56:07 10° SSE 00:59:53 32° E 01:03:41 10° NNE
Okean O Rocket 3.7 00:59:56 10° E 01:00:58 11° ENE 01:02:01 10° NE
FUSE 4.1 00:57:08 10° W 01:02:23 61° S 01:07:38 10° E
CZ-4B DEB 4.5 00:59:08 10° SSE 01:04:23 50° ENE 01:09:38 10° N
SL-16 R/B 4.3 01:00:28 10° NW 01:05:00 25° WSW 01:09:34 10° SSW
Cosmos 44 Rocket 3.4 01:00:47 10° NNW 01:05:41 69° ENE 01:10:41 10° SSE
Cosmos 1470 3.9 01:02:59 10° NNE 01:05:46 22° E 01:08:04 12° SE
Resurs 01 Rocket 1.8 01:06:10 10° S 01:10:30 75° WSW 01:14:53 10° NNW
Cosmos 1766 2.8 01:10:01 10° N 01:13:28 84° E 01:16:54 10° S
CZ-4B R/B 3.9 01:09:58 11° SE 01:14:35 36° ENE 01:19:21 10° N
ADEOS 3.7 01:09:37 10° SSE 01:14:42 57° ENE 01:19:47 10° N
Cosmos 1624 Rocket 4.1 01:11:43 10° N 01:16:57 65° ENE 01:22:01 11° SSE
Cosmos 1371 Rocket 4.0 01:13:28 10° N 01:18:43 68° ENE 01:23:39 11° SSE
SJ-6B 4.4 01:16:30 10° SSW 01:19:55 33° W 01:23:21 10° NNW
BREEZE-M DEB (TANK) 4.0 01:16:40 10° SW 01:20:32 86° NW 01:32:10 10° NE
Cosmos 2056 Rocket 3.4 01:15:28 10° N 01:20:35 73° ENE 01:25:23 11° SSE
Okean 3 Rocket 3.6 01:17:13 10° N 01:21:44 89° W 01:26:14 10° S
SL-4 R/B 3.7 01:20:36 10° SSE 01:28:16 - ENE 01:21:52 15° SSE
GENESIS II 3.3 01:22:41 10° NNW 01:25:33 85° WSW 01:27:16 21° SSE
CSL-04 Rocket 3.6 01:24:00 10° SSE 01:29:14 75° ENE 01:34:30 10° N
CSL-04 Debris 4.1 01:25:24 10° SSE 01:30:49 77° ENE 01:36:15 10° N
Cosmos 2333 Rocket 4.2 01:28:04 10° NW 01:32:32 25° WSW 01:37:00 10° SSW
Delta 2 Rocket 4.4 01:29:03 10° NW 01:32:43 37° NNE 01:36:03 13° ENE
Cosmos 2219 Rocket 2.6 01:28:25 10° NNW 01:33:55 63° WSW 01:39:23 10° S
NOSS 3-2 (C) 4.5 01:26:17 10° NNW 01:34:14 58° ENE 01:40:59 19° SE
Cosmos 1066 Rocket 4.3 01:29:50 10° S 01:35:38 87° W 01:41:31 10° N
OAO 3 Rocket 3.2 01:33:37 10° WNW 01:38:28 76° SSW 01:41:16 25° ESE
Feng Yun 1-1 Rocket 4.4 01:34:07 13° SSE 01:39:21 76° ENE 01:45:16 10° N
Cosmos 1605 Rocket 4.2 01:36:03 10° N 01:41:56 49° E 01:45:43 21° SSE
Okean-O 3.8 01:42:21 22° E 01:43:37 25° ENE 01:47:13 10° NNE
Centaur AC-146 4.4 01:45:58 10° WSW 01:50:27 37° S 02:00:09 20° ESE
CZ-3A R/B 4.1 01:47:18 10° SSW 01:50:51 25° SE 02:01:11 10° E
Meteor PRIRODA 3.5 01:51:59 42° ENE 01:51:59 42° ENE 01:54:44 10° N
Cosmos 2237 Rocket 3.6 01:47:59 10° NNE 01:52:20 22° ENE 01:54:10 19° E
Cosmos 1328 Rocket 3.8 01:56:24 36° SE 01:57:43 48° E 02:01:56 10° NNE
Cosmos 1818 3.7 01:55:14 10° SSW 02:00:38 78° WNW 02:06:06 10° NNE
MOS 1 4.2 01:57:56 27° SSE 02:01:09 72° ENE 02:06:48 10° N
Cosmos 1408 Rocket 4.3 01:57:20 10° NNW 02:01:27 49° W 02:04:41 16° SSW
Cosmos 1110 Rocket 4.1 01:56:50 10° N 02:01:56 56° ENE 02:03:46 36° SE
Sich 1 3.9 01:58:11 10° NNW 02:02:10 45° W 02:05:17 15° SSW
Cosmos 1500 Rocket 4.0 01:59:24 10° NNW 02:03:45 59° W 02:06:34 21° SSW
Cosmos 1331 Rocket 4.1 02:00:44 10° N 02:05:46 55° ENE 02:07:21 39° SE
Cosmos 614 Rocket 4.0 02:02:25 10° SSW 02:07:35 81° WNW 02:12:45 10° NNE
USA 215 3.2 02:04:53 30° SE 02:08:22 78° NE 02:14:53 10° NW
Sakura Rocket 2.9 02:07:04 10° W 02:11:02 87° N 02:12:40 40° E
COSMOS 2428 2.7 02:06:46 10° NNW 02:12:30 84° WSW 02:15:02 35° SSE
Cosmos 2297 Rocket 3.5 02:08:30 10° SW 02:13:45 39° WNW 02:19:02 10° N
CZ-4 R/B 3.9 02:12:42 10° SW 02:15:01 15° W 02:17:19 10° WNW
CZ-4B R/B 4.0 02:19:06 26° SSW 02:21:43 55° W 02:26:44 10° NNW
Helios 1A 3.9 02:19:39 10° N 02:23:25 44° WNW 02:25:53 19° SW
Delta 198 4.4 02:20:22 10° WSW 02:22:42 29° SW 02:22:42 29° SW
RESURS DK-1 2.2 02:24:28 68° ENE 02:24:28 68° ENE 02:28:05 10° NNE
Cosmos 1515 Rocket 4.5 02:25:46 34° ENE 02:25:46 34° ENE 02:28:55 10° NNE
Cosmos 1300 3.0 02:22:04 10° NNW 02:24:48 49° WNW 02:24:48 49° WNW
Terra 1.6 02:28:46 63° SSE 02:29:32 87° ENE 02:34:15 10° N
MetOp-B 4.5 02:27:39 33° SSW 02:29:58 61° W 02:35:16 10° NNW
Meteor 1-13 Rocket 4.3 02:28:30 46° SSE 02:30:10 67° E 02:36:02 10° NNE
Helios 1B rocket 3.3 02:30:39 33° WSW 02:31:17 35° W 02:34:40 10° NNW
SPOT 5 4.2 02:30:26 19° SW 02:32:40 30° W 02:36:42 10° NW
Cosmos 1000 Rocket 4.4 02:31:22 41° S 02:33:40 78° E 02:39:55 10° N
CZ-4B R/B 4.2 02:33:52 25° WSW 02:34:33 27° W 02:37:34 10° NW
Okean O Rocket 2.4 02:35:45 38° SW 02:36:43 45° W 02:40:50 10° NNW
NOSS 0 Rocket 3.9 02:31:43 10° NNW 02:37:55 77° WSW 02:39:42 48° S
IRS-1C Rocket 4.4 02:38:07 49° E 02:38:18 49° ENE 02:43:22 10° N
Cosmos 1452 Rocket 3.5 02:34:46 10° NNW 02:40:00 75° WSW 02:40:56 59° SSW
Cosmos 2227 Rocket 2.9 02:36:50 10° SW 02:42:18 53° WNW 02:47:49 10° N
Cosmos 921 Rocket 4.4 02:43:34 21° SW 02:45:42 35° WNW 02:49:37 10° N
Cosmos 2263 Rocket 2.0 02:46:01 70° SE 02:46:27 74° ESE 02:52:08 10° NNE
SL-14 R/B 4.1 02:47:01 44° W 02:47:05 44° W 02:50:51 10° N
SL-16 R/B 4.0 02:43:32 10° NNE 02:47:11 17° ENE 02:47:12 17° ENE
Cosmos 1153 Rocket 4.5 02:42:08 10° N 02:48:15 78° W 02:49:56 50° SSW
Spot 2 Rocket 3.3 02:48:08 82° SE 02:48:20 86° ENE 02:53:26 10° N
Cosmos 2173 Rocket 3.9 02:44:55 10° N 02:51:00 62° E 02:51:21 61° E
ERS-1 Rocket 4.0 02:56:43 34° SW 02:57:46 38° W 03:02:25 10° NNW
COSMOS 2455 3.0 02:53:44 10° NNW 02:59:40 59° ENE 02:59:50 58° ENE
SL-4 R/B 3.2 03:01:29 41° NNW 03:01:29 41° NNW 03:04:57 10° NNE
Cosmos 1980 3.6 02:57:06 10° NNW 03:02:44 74° WSW 03:02:56 73° SW
Cosmos 2100 Rocket 3.8 03:00:57 10° N 03:07:07 89° W 03:07:30 80° S
Cosmos 2219 3.1 03:07:48 81° WSW 03:07:59 82° WNW 03:13:45 10° NNE
Geosat 4.2 03:10:01 10° NNE 03:14:42 65° NW 03:14:42 65° NW
Cosmos 1725 Rocket 4.2 03:10:10 10° N 03:15:56 60° ENE 03:15:56 60° ENE
BREEZE-M DEB (TANK) 3.6 03:08:59 10° NW 03:16:34 50° N 03:16:34 50° N
Cosmos 2082 3.9 03:18:16 63° NNE 03:18:16 63° NNE 03:23:02 10° NNE
Cosmos 2123 Rocket 4.5 03:25:14 48° WSW 03:26:20 54° W 03:32:27 10° N
Lacrosse 4 Rocket 3.4 03:24:30 10° NNW 03:26:28 25° N 03:26:28 25° N
Cosmos 2237 Rocket 3.3 03:31:13 10° NW 03:35:58 37° W 03:35:58 37° W
USA 238 DEB 4.2 03:32:12 10° NW 03:39:49 58° WSW 03:40:28 56° SW
USA 238 4.2 03:32:18 10° NW 03:39:55 59° WSW 03:40:34 57° SW
ATLAS CENTAUR R/B 4.1 03:43:56 10° NNW 03:44:38 15° NNW 03:44:38 15° NNW
Ariane Rocket 4.4 03:50:19 33° WNW 03:50:19 33° WNW 03:53:46 10° NNW
Cosmos 2061 Rocket 4.4 03:49:31 10° N 03:54:25 57° N 03:54:25 57° N
Cosmos 1844 Rocket 4.5 03:59:35 22° NE 03:59:35 22° NE 04:01:39 10° NNE
Cosmos 909 Rocket 4.5 03:59:21 10° NNW 04:05:36 62° N 04:05:36 62° N
SL-16 R/B 3.8 04:26:02 10° NNW 04:29:03 30° NW 04:29:03 30° NW
ATLAS 2AS CENTAUR R/B 3.7 04:47:13 40° NE 04:47:13 40° NE 04:51:28 10° NNE
USA 234 4.4 06:06:50 10° NNE 06:12:30 33° NW 06:13:07 32° NW
USA 59 Rocket 3.0 06:11:20 10° NNW 06:11:51 14° NNW 06:11:51 14° NNW
Atlas Centaur 2 4.4 06:28:27 23° ESE 06:28:27 23° ESE 06:31:45 10° E
IDEFIX/ARIANE 42P 4.4 06:21:46 10° NNE 06:24:16 25° NE 06:24:16 25° NE
ATLAS 3B R/B 4.5 06:21:57 10° N 06:28:33 29° NE 06:34:25 12° ESE
Cosmos 1833 Rocket 4.1 06:26:43 10° N 06:30:36 35° NE 06:30:36 35° NE
NOSS 3-1 (A) 4.4 06:35:04 10° NW 06:41:41 60° WNW 06:41:41 60° WNW
Cosmos 2278 Rocket 3.1 06:58:23 43° N 06:58:23 43° N 07:02:13 10° NNE
CZ-2C R/B 4.1 07:00:22 29° NNW 07:00:22 29° NNW 07:02:53 10° NNW
Resurs 1-4 Rocket 3.7 06:54:03 10° NE 06:57:39 28° ENE 06:57:39 28° ENE
Cosmos 1943 Rocket 3.1 07:03:36 42° N 07:03:36 42° N 07:07:17 10° NNE
CZ-2D R/B 3.2 07:08:40 10° NNE 07:13:00 38° E 07:13:00 38° E
Cosmos 2369 Rocket 3.9 07:32:20 22° ESE 07:33:24 23° E 07:37:49 10° NE
USA 229 DEB 4.4 07:29:39 10° NNW 07:37:27 66° ENE 07:45:42 10° SE
USA 229 4.4 07:29:45 10° NNW 07:37:33 65° ENE 07:45:47 10° SE
Cosmos 1607 4.5 07:38:34 45° SE 07:39:09 47° ESE 07:45:04 10° NE
Cosmos 1092 Rocket 4.3 07:40:04 54° WNW 07:40:04 54° WNW 07:45:42 10° N
Cosmos 158 Rocket 4.5 07:34:41 10° NNW 07:38:30 52° N 07:38:30 52° N
ADEOS II 2.5 07:37:53 10° NNE 07:43:00 53° E 07:43:07 53° ESE
H-2A R/B 3.8 07:41:27 10° N 07:43:12 23° NNW 07:43:12 23° NNW
Meteor 2-1 Rocket 4.2 07:39:30 10° N 07:45:28 84° W 07:45:28 84° W
Cosmos 1455 Rocket 4.1 07:50:27 10° N 07:53:12 38° NNW 07:53:12 38° NNW
FENGYUN 3A 4.3 07:57:38 10° N 08:02:15 40° WNW 08:02:15 40° WNW
IDEFIX/ARIANE 42P 4.3 08:01:56 10° NNW 08:04:58 20° WNW 08:04:58 20° WNW
Envisat 3.0 08:04:23 10° NNE 08:09:27 76° ESE 08:10:12 63° SSE
Cosmos 1536 Rocket 4.4 08:09:51 39° ESE 08:10:35 43° E 08:14:39 10° NNE
ATLAS 5 CENTAUR R/B 3.4 08:13:58 13° NNW 08:13:58 13° NNW 08:14:40 10° N
Atlas Centaur 2 2.9 08:10:26 46° WSW 08:13:14 79° SSE 08:21:26 10° ENE
Cosmos 2228 3.3 08:09:19 10° N 08:13:22 59° E 08:13:44 56° ESE
USA 281 3.3 08:11:00 10° NNE 08:17:33 69° ESE 08:20:24 36° S
H-2A R/B 3.4 08:14:28 10° NE 08:19:07 33° E 08:22:14 17° SSE
ATLAS 3B R/B 3.0 08:12:09 10° NW 08:19:31 51° WSW 08:21:28 41° SSW
SL-24 DEB 4.5 08:19:04 10° NNE 08:23:28 86° ESE 08:24:00 69° S
OAO 1 4.4 08:24:52 31° WNW 08:27:34 78° SSW 08:33:04 10° ESE
H-2A R/B 4.1 08:31:30 10° NNE 08:35:17 46° E 08:36:43 31° SSE
Cosmos 2098 Rocket 4.4 08:32:31 10° NNW 08:33:45 19° NW 08:33:45 19° NW
NOSS 3-3 (A) 4.1 08:34:41 37° W 08:35:50 42° WNW 08:41:09 10° NNE
Lacrosse 5 rocket 3.4 08:36:26 14° SE 08:37:52 17° ESE 08:40:24 10° ENE
Resurs 1-4 Rocket 3.3 08:34:01 10° NNW 08:38:10 24° WNW 08:38:42 24° W
COSMOS 2406 3.5 08:32:30 10° NNW 08:38:13 67° ENE 08:43:54 10° SSE
Cosmos 1544 Rocket 3.3 08:34:30 10° N 08:38:47 86° W 08:40:11 42° S
Fermi 3.7 08:42:24 57° S 08:42:25 57° S 08:46:17 10° E
ALOS 3.1 08:39:20 10° N 08:43:22 31° WNW 08:43:44 31° W
SEDSat Delta rocket 4.3 08:43:44 28° S 08:44:33 29° SSE 08:48:28 10° E
Cosmos 2082 Rocket 2.2 08:41:13 10° NNW 08:46:47 56° WSW 08:50:36 20° S
CZ-2D R/B 3.6 08:49:35 10° NNW 08:53:15 19° WNW 08:54:16 18° W
METEOR-M 4.2 08:50:23 10° N 08:55:39 62° WNW 08:58:24 28° SW
GPS 2-15 Rocket1 4.1 08:56:08 27° S 08:56:30 27° S 09:00:23 10° ESE
Meteor 1-28 Rocket 3.5 08:54:51 12° SSE 08:57:53 59° ENE 09:01:15 10° N
SL-16 R/B 2.6 08:52:56 10° SSE 08:59:06 84° ENE 09:05:20 10° NNW
AQUA 4.5 08:56:03 10° N 09:00:19 36° WNW 09:01:51 29° WSW
CZ-2C R/B 2.9 08:56:15 10° NNE 09:00:49 55° E 09:05:17 11° S
Cosmos 2285 Rocket 4.3 09:04:53 24° SW 09:08:25 49° WNW 09:14:31 10° N
Centaur AC-112 3.2 08:57:03 10° W 09:09:51 74° S 09:13:13 10° ESE
Cosmos 1862 3.2 09:07:21 18° S 09:09:59 77° E 09:13:41 10° N
Cosmos 1602 3.8 09:09:01 15° S 09:11:34 56° E 09:14:48 10° NNE
ARGOS 4.0 09:09:03 10° NNE 09:14:18 50° E 09:19:31 10° S
CZ-3 R/B 3.6 08:59:00 19° SW 09:16:37 51° SSE 09:24:24 10° E
Cosmos 2369 Rocket 3.0 09:14:07 21° WSW 09:17:06 34° WNW 09:22:16 10° N
BREEZE M DEB (TANK) 4.4 09:11:59 16° WSW 09:21:20 42° NW 09:25:24 10° NNE
ADEOS II 3.9 09:19:28 10° NW 09:22:01 14° WNW 09:23:56 12° W
Cosmos 1726 Rocket 4.0 09:23:17 10° N 09:27:26 62° E 09:31:42 10° SSE
Meteor 2-3 Rocket 3.9 09:23:31 10° S 09:29:11 76° E 09:34:56 10° N
Cosmos 1655 Rocket 4.4 09:24:24 14° SSW 09:29:30 44° W 09:35:31 10° N
S3M 4.4 09:23:45 10° NNW 09:29:43 43° W 09:35:39 10° SSW
Cosmos 2058 4.2 09:29:41 17° WSW 09:31:16 22° W 09:34:23 10° NNW
YAOGAN 6 4.2 09:31:37 10° E 09:31:59 10° E 09:32:20 10° ESE
ACS3 Solar Sail 4.3 09:30:21 10° NE 09:34:01 17° E 09:37:44 10° SE
Helios 1A Rocket 2.7 09:30:37 10° SSE 09:34:09 78° ENE 09:37:42 10° N
ISS -1.2 09:32:29 10° SSE 09:34:28 15° SE 09:36:28 10° E
CZ-4C R/B 3.2 09:31:26 10° S 09:34:41 27° ESE 09:38:21 10° NE
Cosmos 1933 4.1 09:33:35 10° N 09:37:20 51° E 09:41:05 10° SSE
BlueWalker 3 2.7 09:34:35 11° SSW 09:37:53 43° SE 09:41:21 10° NE
Cosmos 2315 Rocket 4.3 09:37:30 10° NNW 09:43:28 46° W 09:49:28 10° SSW
Cosmos 1441 Rocket 4.0 09:41:04 10° S 09:44:25 47° E 09:47:49 10° NNE
Cosmos 1244 Rocket 4.5 09:39:19 10° SSW 09:45:23 67° W 09:51:31 10° N
Cosmos 1939 Rocket 3.0 09:42:58 10° NNE 09:46:40 68° ESE 09:50:22 10° S
Cosmos 1782 3.2 09:45:31 10° NNW 09:48:49 34° W 09:52:08 10° SSW
Cosmos 1400 Rocket 3.4 09:45:43 10° NNW 09:49:13 35° W 09:52:44 10° SSW
BREEZE-M DEB (TANK) 3.5 09:40:04 10° NW 09:52:15 54° WSW 09:56:11 10° SSE
Aureole 1 Rocket 3.8 09:49:33 11° SW 09:52:42 30° WNW 09:56:40 10° N
Intelsat 5-3 Rocket 2.7 09:52:22 11° SW 09:54:30 31° SSE 09:57:58 10° ESE
H-2A R/B 3.5 09:54:17 10° NNW 09:58:07 21° WNW 10:01:53 10° WSW
Cosmos 1263 4.2 09:58:17 10° N 10:01:14 87° E 10:04:28 10° S
Atlas Centaur 2 3.2 09:54:24 10° W 10:02:43 78° N 10:10:27 10° E
Cosmos-2242 4.0 09:59:31 10° N 10:03:32 48° E 10:07:31 10° SSE
Cosmos 1745 Rocket 4.2 10:00:43 10° S 10:06:52 81° E 10:13:08 10° N
